Regional Weather Roundup
Issued by NWS

Home | Current Version | Previous Version | Graphics & Text | Print | Product List | Glossary Off
Versions: 1 2 3 4 5 6 7 8 9 10 11 12 13 14 15 16 17 18 19 20 21 22 23 24 25 26 27 28 29 30 31 32 33 34 35 36 37 38 39 40 41 42 43 44 45 46 47 48 49 50

741
ASUS43 KMKX 231000
RWRWI

WISCONSIN REGIONAL WEATHER ROUNDUP
NATIONAL WEATHER SERVICE MILWAUKEE/SULLIVAN WI
500 AM CDT TUE MAY 23 2017

NOTE: "FAIR" INDICATES FEW OR NO CLOUDS BELOW 12,000 FEET WITH NO
SIGNIFICANT WEATHER AND/OR OBSTRUCTIONS TO VISIBILITY.

WIZ001-002-006>008-014>016-023>028-231100-
NORTHWEST WISCONSIN

CITY           SKY/WX    TMP DP  RH WIND       PRES   REMARKS
SUPERIOR ARPT  NOT AVBL
ASHLAND        CLOUDY    44  43  96 CALM      29.82S
HAYWARD        CLOUDY    42  40  92 CALM      29.82R
SIREN          DRIZZLE   45  44  97 CALM      29.82S
CUMBERLAND     CLOUDY    45  45 100 N5        29.81S
RICE LAKE      CLOUDY    47  46  93 CALM      29.83S
CHETEK         DRIZZLE   47  47 100 CALM      29.82S
LADYSMITH      RAIN      46  45  94 NW3       29.83S
EAU CLAIRE     NOT AVBL
MENOMONIE      CLOUDY    49  48  95 NW8       29.80F
NEW RICHMOND   CLOUDY    48  47  97 E3        29.81S
OSCEOLA        CLOUDY    48  48 100 CALM      29.84S
$$

WIZ003>005-009-010-017-018-231100-
NORTH CENTRAL WISCONSIN

CITY           SKY/WX    TMP DP  RH WIND       PRES   REMARKS
MANITOWISH WTR CLOUDY    38  38 100 CALM      29.81S FOG
ARBOR VITAE    CLOUDY    42  40  95 CALM      29.80F
WOODRUFF       CLOUDY    42  40  95 CALM      29.80F
RHINELANDER    CLOUDY    46  43  89 CALM      29.80F
EAGLE RIVER    CLOUDY    42  42 100 CALM      29.81S
LAND O LAKES   CLOUDY    40  40 100 CALM      29.82F
PHILLIPS       CLOUDY    41  41 100 CALM      29.80S
TOMAHAWK       DRIZZLE   41  40  97 CALM      29.80F
MEDFORD        CLOUDY    46  44  90 NE5       29.78S
MERRILL        LGT RAIN  46  46 100 CALM      29.80S
$$

WIZ029-030-035-036-043>047-231100-
CENTRAL WISCONSIN

CITY           SKY/WX    TMP DP  RH WIND       PRES   REMARKS
WAUSAU         LGT RAIN  48  46  93 E8        29.76F
MOSINEE        DRIZZLE   46  46 100 E6        29.78F
MARSHFIELD     CLOUDY    48  46  93 E8        29.76R
STEVENS POINT  CLOUDY    47  46  99 NE9       29.77F
WAUPACA        CLOUDY    52  48  86 NE6       29.77F
WAUTOMA        MOCLDY    50  49  96 NE3       29.77R
WISC RAPIDS    CLOUDY    50  47  89 E8        29.77R
CAMP DOUGLAS   FOG       45  45 100 CALM      29.75S VSB 1/2
$$

WIZ011>013-019>022-031-037>040-048>050-231100-
NORTHEAST WISCONSIN

CITY           SKY/WX    TMP DP  RH WIND       PRES   REMARKS
ANTIGO         CLOUDY    46  44  92 SE5       29.80S
SHAWANO        LGT RAIN  52  47  85 CALM      29.80R
OCONTO         CLOUDY    43  42  98 NE3       29.79S
STURGEON BAY   CLOUDY    48  44  86 E7        29.80F
GREEN BAY      CLOUDY    53  45  74 E9        29.78S
MANITOWOC      NOT AVBL
APPLETON       CLOUDY    52  41  66 E5        29.75S
CLINTONVILLE   LGT RAIN  50  45  81 CALM      29.80R
OSHKOSH        CLOUDY    55  52  89 CALM      29.76R
$$

WIZ032>034-041-042-053>061-231100-
SOUTHWEST WISCONSIN

CITY           SKY/WX    TMP DP  RH WIND       PRES   REMARKS
LA CROSSE      CLOUDY    54  53  97 E3        29.76R FOG
SPARTA         FOG       46  46 100 CALM      29.77S VSB 1
VIROQUA        CLOUDY    51  51 100 MISG      29.76S VSB 1/2
BOSCOBEL       FOG       53  52  96 CALM      29.76S VSB 3/4
PRAIRIE DU CHI FOG       51  50  97 CALM      29.76S VSB 1
PLATTEVILLE    MOCLDY    54  54 100 S9        29.77S
$$

WIZ056-057-062-063-064-067-068-231100-
SOUTH CENTRAL WISCONSIN

CITY           SKY/WX    TMP DP  RH WIND       PRES   REMARKS
REEDSBURG      CLOUDY    53  53 100 CALM      29.75S
BARABOO/DELLS  CLOUDY    52  51  95 CALM      29.75F FOG
LONE ROCK      CLOUDY    54  52  94 CALM      29.76R FOG
MINERAL POINT  CLOUDY    55  55 100 SW8       29.76S FOG
MADISON        CLOUDY    56  55  97 S8        29.76R
MIDDLETON      CLOUDY    56  56 100 SW3       29.76S
WATERTOWN      CLOUDY    55  55 100 S6        29.77R
MONROE         PTCLDY    52  52 100 S10       29.77S
JANESVILLE     CLOUDY    55  55 100 S7        29.78S
$$

WIZ051-052-058>065-066-070>072-231100-
SOUTHEAST WISCONSIN

CITY           SKY/WX    TMP DP  RH WIND       PRES   REMARKS
MILWAUKEE      PTCLDY    57  54  89 S7        29.78F
WAUKESHA       CLOUDY    52  52 100 S5        29.78F
MILWAUKEE/TIMM   N/A     54  50  87 S3        29.78F
RACINE         CLOUDY    59  53  80 SW8       29.80F
KENOSHA        CLOUDY    58  53  84 SW8       29.80S
FOND DU LAC    CLOUDY    56  52  86 S6        29.76R
SHEBOYGAN      MOCLDY    51  50  96 NE7       29.77F
WEST BEND      CLOUDY    54  54 100 NE5       29.78R
JUNEAU         CLOUDY    55  53  95 SE5       29.77S
$$

LSZ147-162-231100-
LAKE SUPERIOR

STATION/POSITION TIME  TEMP    WIND        PRES    WAVE
                       AIR SEA DIR/SP/G            HT/PER
                 (UTC) (F)     (DEG/KT/KT) (MB)    (FT/S)
W MID LAKE BUOY  0850   41 37  250/  2/  2 1010.1F   0
DEVILS ISLAND    0900   45     320/  2/  3 1010.3R
PORT WING        0940   44     360/  2/  2 1010.2S
SAXON HARBOR     0930   46      CALM  /  1 1009.5S
$$

LMZ867-665-643>646-231100-
LAKE MICHIGAN

STATION/POSITION TIME  TEMP    WIND        PRES    WAVE
                       AIR SEA DIR/SP/G            HT/PER
                 (UTC) (F)     (DEG/KT/KT) (MB)    (FT/S)
CHAMBERS ISLAND  0940   44        CALM     1009.1S
N MID LAKE BUOY  0850   41 38  300/  2/  4 1010.8F   2/ 5
NORTHPORT PIER   0940   42     310/  3/  3 1009.5S
SISTER BAY       0806   43        CALM       N/A
KEWAUNEE LAKESHO 0930   47      50/  4/  5 1008.8F
SHEBOYGAN LAKESH 0900   49      30/  7/  7 1008.5F
PORT WASHINGTON  0930   49      50/  5/  6 1009.1F
ATWATER BUOY     0809   52     160/  6/  6 1009.1F
MILWAUKEE LAKESH 0930   57     190/  6/  7   N/A
S MID LAKE BUOY  0850   48 45  180/ 10/ 10 1009.9F   1/ 4
KENOSHA   LAKESH 0900   59     190/  6/ 11 1009.1
$$

TC  - TEMPERATURE IN CELSIUS
VSB - VISIBILITY IN STATUTE MILES
WCI - WIND CHILL INDEX
HX  - HEAT INDEX





USA.gov is the U.S. government's official web portal to all federal, state and local government web resources and services.